GW2741 Weather Reports


time (UTC)temp
C
wind
direction
speed
KPH
gust
KPH
rain 1hr
cm
rain 24hr
cm
rain mn
cm
humidity
%
barometer
mb
20260902065043 14 173 9.7 14.5 0.00 0.18 0.00 92 1012.8
20260902064143 14 178 14.5 20.9 0.00 0.18 0.00 92 1012.7
20260902063243 14 174 16.1 22.5 0.00 0.18 0.00 92 1012.7
20260902062343 14 177 12.9 19.3 0.00 0.18 0.00 92 1012.6
20260902061443 14 169 11.3 17.7 0.00 0.18 0.00 92 1013.0
20260901221751 15 332 1.6 4.8 0.00 0.00 0.13 82 1015.4
20260901220851 15 308 1.6 3.2 0.00 0.13 0.13 82 1015.6
20260901215951 15 254 0.0 3.2 0.00 0.13 0.13 82 1015.5
20260901215051 15 229 0.0 3.2 0.00 0.13 0.13 82 1015.7
20260901213251 15 225 0.0 3.2 0.00 0.13 0.13 81 1015.4
20260901212351 15 262 0.0 3.2 0.00 0.13 0.13 81 1015.7
20260901211451 15 348 1.6 3.2 0.00 0.13 0.13 80 1015.8
20260901205651 15 332 3.2 4.8 0.00 0.13 0.13 80 1015.3
20260901204751 15 344 3.2 6.4 0.00 0.15 0.13 79 1015.5
20260901203851 15 346 4.8 8.0 0.00 0.15 0.13 78 1015.4
20260901202951 15 352 3.2 6.4 0.00 0.15 0.13 77 1015.4
20260901202052 15 335 3.2 8.0 0.00 0.15 0.13 77 1015.5
20260901201151 15 266 1.6 4.8 0.00 0.15 0.13 77 1015.2
20260901200251 15 225 1.6 4.8 0.00 0.15 0.13 76 1015.3
20260901195351 16 263 1.6 6.4 0.03 0.15 0.13 76 1015.3
20260901194451 16 296 3.2 8.0 0.03 0.15 0.13 75 1015.2
20260901192651 16 39 3.2 6.4 0.03 0.15 0.13 74 1015.1
20260901191751 16 105 3.2 6.4 0.03 0.15 0.13 74 1015.0
20260901185051 16 140 3.2 8.0 0.00 0.13 0.10 73 1014.7
20260901184151 16 145 3.2 9.7 0.00 0.13 0.10 72 1014.7
20260901183251 16 114 4.8 9.7 0.00 0.13 0.10 72 1014.7
20260901182351 16 84 4.8 9.7 0.00 0.13 0.10 71 1014.7
20260901181451 16 47 3.2 9.7 0.00 0.13 0.10 71 1014.8
20260901180551 16 128 3.2 8.0 0.00 0.13 0.10 70 1014.8
20260901175651 16 286 3.2 9.7 0.00 0.13 0.10 70 1014.7
20260901174751 17 270 3.2 9.7 0.00 0.13 0.10 70 1014.9
20260901173851 17 226 4.8 11.3 0.00 0.13 0.10 70 1015.0
20260901172951 17 354 4.8 11.3 0.00 0.13 0.10 70 1015.1
20260901172051 17 211 6.4 12.9 0.00 0.13 0.10 71 1014.8
20260901171151 17 284 4.8 12.9 0.00 0.13 0.10 71 1015.0
20260901170251 17 295 4.8 11.3 0.00 0.13 0.10 70 1014.7
20260901165351 16 299 4.8 11.3 0.00 0.13 0.10 70 1015.0
20260901164451 17 51 3.2 9.7 0.00 0.13 0.10 69 1015.0
20260901163551 17 281 4.8 14.5 0.00 0.13 0.10 68 1015.1
20260901162651 17 294 6.4 12.9 0.00 0.13 0.10 67 1014.9
20260901161751 17 247 6.4 12.9 0.00 0.13 0.10 67 1014.9
20260901160851 17 325 6.4 12.9 0.00 0.13 0.10 66 1014.9
20260901155951 17 273 8.0 16.1 0.00 0.13 0.10 66 1014.8
20260901154151 17 262 9.7 17.7 0.00 0.13 0.10 61 1014.7
20260901152351 17 263 9.7 20.9 0.00 0.13 0.10 62 1014.7
20260901151451 17 286 9.7 19.3 0.00 0.13 0.10 62 1014.7
20260901150551 17 268 9.7 24.1 0.00 0.13 0.10 62 1014.7
20260901145651 18 2 6.4 16.1 0.00 0.13 0.10 62 1014.6
20260901143851 18 196 8.0 17.7 0.00 0.13 0.10 61 1014.7
20260901142951 18 233 8.0 16.1 0.00 0.13 0.10 61 1014.5
20260901142051 18 7 8.0 17.7 0.00 0.13 0.10 61 1014.3
20260901141151 18 248 8.0 17.7 0.00 0.13 0.10 62 1014.3
20260901140251 18 306 8.0 20.9 0.00 0.13 0.10 62 1014.3
20260901135351 18 318 8.0 17.7 0.00 0.13 0.10 63 1014.3
20260901134451 18 270 9.7 20.9 0.00 0.13 0.10 63 1014.3
20260901133551 18 303 9.7 17.7 0.00 0.13 0.10 63 1014.5
20260901132651 18 68 8.0 17.7 0.00 0.13 0.10 63 1014.1
20260901130851 18 93 9.7 19.3 0.00 0.13 0.10 65 1014.1
20260901125951 17 115 9.7 22.5 0.00 0.13 0.10 67 1014.2
20260901125051 17 207 9.7 17.7 0.00 0.13 0.10 70 1014.3
20260901124151 17 93 9.7 17.7 0.00 0.13 0.10 71 1014.3
20260901123251 17 55 8.0 19.3 0.00 0.13 0.10 72 1014.0
20260901122351 17 260 8.0 17.7 0.03 0.13 0.10 73 1014.2
20260901121451 17 262 8.0 19.3 0.03 0.13 0.10 74 1014.3
20260901120551 17 294 8.0 17.7 0.03 0.13 0.10 77 1014.2
20260901115651 17 300 8.0 14.5 0.03 0.13 0.10 77 1014.0
20260901114751 16 201 8.0 16.1 0.03 0.13 0.10 75 1014.2
20260901113851 16 176 6.4 19.3 0.03 0.13 0.10 73 1014.2
20260901112051 16 262 6.4 17.7 0.00 0.10 0.05 71 1014.0
20260901111151 17 144 4.8 11.3 0.00 0.10 0.05 70 1013.9
20260901110251 17 51 6.4 12.9 0.00 0.10 0.05 67 1013.9
20260901104451 18 254 9.7 19.3 0.00 0.10 0.05 63 1013.8
20260901103551 18 211 8.0 16.1 0.00 0.10 0.05 64 1013.7
20260901102651 19 184 9.7 17.7 0.00 0.10 0.05 68 1013.7
20260901101751 18 197 9.7 19.3 0.00 0.10 0.05 71 1013.5
20260901100851 17 202 8.0 24.1 0.00 0.10 0.05 73 1013.9
20260901095951 17 127 8.0 17.7 0.00 0.10 0.05 76 1014.0
20260901095051 16 17 8.0 16.1 0.00 0.10 0.05 76 1013.8
20260901094151 16 303 8.0 16.1 0.00 0.10 0.05 77 1014.1
20260901092351 16 29 6.4 14.5 0.00 0.10 0.05 79 1013.7
20260901091451 16 128 8.0 14.5 0.00 0.10 0.05 79 1013.8
20260901085651 16 179 8.0 17.7 0.03 0.10 0.05 80 1013.7
20260901084751 16 169 6.4 12.9 0.03 0.10 0.05 80 1013.6
20260901083851 15 112 6.4 14.5 0.05 0.10 0.05 80 1013.6
20260901082951 15 81 8.0 20.9 0.05 0.10 0.05 80 1013.4
20260901081151 15 278 8.0 16.1 0.05 0.10 0.05 80 1013.4
20260901080251 15 164 8.0 16.1 0.05 0.10 0.05 80 1013.6
20260901075351 15 107 8.0 17.7 0.03 0.05 0.03 80 1013.7
20260901074451 15 91 8.0 17.7 0.03 0.05 0.03 80 1013.3
20260901073551 15 165 8.0 17.7 0.00 0.03 0.00 80 1013.2
20260901072651 15 156 11.3 17.7 0.00 0.03 0.00 81 1013.3
20260901071751 15 141 9.7 19.3 0.00 0.03 0.00 81 1013.4
20260901070851 15 181 11.3 25.7 0.00 0.03 0.00 81 1013.2
20260901065951 15 179 12.9 25.7 0.00 0.05 0.00 81 1013.3